Starlink 36088

operational
NORAD ID: 66941 Int'l Des: 2025-286 Owner: SPXS Country: US Constellation: starlink
LEOCIRCULAR

Starlink 36088について

説明を読み込み中...

リアルタイム位置

3D地球を読み込み中...

次回通過

高度履歴

Altitude vs Time

uPlot chart will show altitude changes over time

軌道要素

1 66941U 25286S 25347.58336806 -.01263255 48924-3 -29293-2 0 9992
2 66941 53.1568 46.4071 0000918 60.4178 239.6683 15.96501922 2124
Epoch: Dec 13, 2025 • Age: 16 hours

現在のステータス

高度 290.8 km
速度 7.73 km/s
衛星直下点 -4.90°S, 52.58°E
打ち上げ日 Dec 7, 2025
運用期間 6 days
タイプ internet

技術仕様

分類 Payload
質量 575.00 kg
乾燥質量 530.00 kg
総質量 575.00 kg
長さ 0.30 m
直径 4.10 m
スパン 29.00 m
形状 Box + pan
製造者 SPXS
バスタイプ Starlink V2MO
フェーズステータス In Orbit
所有者/国 SPXS/US

大規模コンステレーション

Loading constellations...